,,PA_Meas_PMT16A,,PR_Meas_QMR101_102,,RH_Meas_QMH101,,SR_Meas_QMS101,,TA_Meas_QMH101,,GenWind,,GenWind,
time,status,PA,status,PR,status,RH,status,SR,status,TA,status,DirAvg,status,SpdAvg,
2011-08-16, 00:00:04,VALID,918.357,VALID,0,VALID,95.0411,VALID,0,VALID,21.5737,VALID,279,VALID,0.679688,
2011-08-16, 00:01:04,VALID,918.304,VALID,0,VALID,95.0945,VALID,0,VALID,21.5737,VALID,279,VALID,0.374609,
2011-08-16, 00:02:04,VALID,918.313,VALID,0,VALID,95.1631,VALID,0,VALID,21.5542,VALID,280,VALID,0.153906,
2011-08-16, 00:03:04,VALID,918.32,VALID,0,VALID,95.247,VALID,0,VALID,21.5331,VALID,280,VALID,0.378906,
2011-08-16, 00:04:04,VALID,918.276,VALID,0,VALID,95.2698,VALID,0.107441,VALID,21.4941,VALID,279,VALID,0,
2011-08-16, 00:05:04,VALID,918.313,VALID,0,VALID,95.2851,VALID,0,VALID,21.5168,VALID,280,VALID,0.265234,
2011-08-16, 00:06:04,VALID,918.286,VALID,0,VALID,95.3003,VALID,0,VALID,21.4762,VALID,279,VALID,0.274609,
2011-08-16, 00:07:04,VALID,918.304,VALID,0,VALID,95.3384,VALID,0,VALID,21.4762,VALID,280,VALID,0.152344,
2011-08-16, 00:08:04,VALID,918.277,VALID,0,VALID,95.3079,VALID,0.107441,VALID,21.4746,VALID,280,VALID,0.430859,
2011-08-16, 00:09:04,VALID,918.274,VALID,0,VALID,95.3461,VALID,0.107441,VALID,21.4746,VALID,280,VALID,0.433984,
2011-08-16, 00:10:04,VALID,918.258,VALID,0,VALID,95.2546,VALID,0.107441,VALID,21.4355,VALID,280,VALID,0.339453,
2011-08-16, 00:11:04,VALID,918.217,VALID,0,VALID,95.2851,VALID,0,VALID,21.455,VALID,279,VALID,0.292969,
2011-08-16, 00:12:04,VALID,918.22,VALID,0,VALID,95.3079,VALID,0.107441,VALID,21.4746,VALID,280,VALID,0.0535156,
2011-08-16, 00:13:04,VALID,918.186,VALID,0,VALID,95.2546,VALID,0.107441,VALID,21.4746,VALID,279,VALID,0,
2011-08-16, 00:14:04,VALID,918.224,VALID,0,VALID,95.247,VALID,0,VALID,21.4746,VALID,280,VALID,0,
2011-08-16, 00:15:04,VALID,918.199,VALID,0,VALID,95.247,VALID,0.107441,VALID,21.4746,VALID,280,VALID,0,
2011-08-16, 00:16:04,VALID,918.174,VALID,0,VALID,95.2546,VALID,0,VALID,21.5152,VALID,279,VALID,0,
2011-08-16, 00:17:04,VALID,918.165,VALID,0,VALID,95.2012,VALID,0.107441,VALID,21.4941,VALID,280,VALID,0.430469,
2011-08-16, 00:18:04,VALID,918.147,VALID,0,VALID,95.1402,VALID,0.107441,VALID,21.4941,VALID,280,VALID,0.59375,
2011-08-16, 00:19:04,VALID,918.111,VALID,0,VALID,95.1326,VALID,0.107441,VALID,21.4746,VALID,279,VALID,0.454688,
2011-08-16, 00:20:04,VALID,918.076,VALID,0,VALID,95.1555,VALID,0.107441,VALID,21.455,VALID,280,VALID,0.596875,
2011-08-16, 00:21:04,VALID,918.087,VALID,0,VALID,95.2775,VALID,0.107441,VALID,21.455,VALID,280,VALID,0.8625,
2011-08-16, 00:22:04,VALID,918.116,VALID,0,VALID,95.3156,VALID,0.107441,VALID,21.4746,VALID,280,VALID,0.532422,
2011-08-16, 00:23:04,VALID,918.107,VALID,0,VALID,95.3308,VALID,0.107441,VALID,21.455,VALID,280,VALID,0.358984,
2011-08-16, 00:24:04,VALID,918.08,VALID,0,VALID,95.3156,VALID,0.107441,VALID,21.455,VALID,280,VALID,0.270312,
2011-08-16, 00:25:04,VALID,918.107,VALID,0,VALID,95.3232,VALID,0,VALID,21.4355,VALID,280,VALID,0.495313,
2011-08-16, 00:26:04,VALID,918.126,VALID,0,VALID,95.3689,VALID,0.107441,VALID,21.455,VALID,280,VALID,0.667969,
2011-08-16, 00:27:04,VALID,918.124,VALID,0,VALID,95.4223,VALID,0.107441,VALID,21.4746,VALID,333,VALID,1.02969,
2011-08-16, 00:28:04,VALID,918.098,VALID,0,VALID,95.3156,VALID,0.107441,VALID,21.4372,VALID,13,VALID,0.719922,
2011-08-16, 00:29:04,VALID,918.075,VALID,0,VALID,95.3918,VALID,0.107441,VALID,21.4355,VALID,13,VALID,0.485547,
2011-08-16, 00:30:04,VALID,918.047,VALID,0,VALID,95.3994,VALID,0.107441,VALID,21.4355,VALID,13,VALID,0.149219,
2011-08-16, 00:31:04,VALID,918.015,VALID,0,VALID,95.3766,VALID,0.107441,VALID,21.4355,VALID,13,VALID,0.0855469,
2011-08-16, 00:32:04,VALID,917.964,VALID,0,VALID,95.3613,VALID,0.107441,VALID,21.416,VALID,13,VALID,0.173438,
2011-08-16, 00:33:04,VALID,917.962,VALID,0,VALID,95.3918,VALID,0.107441,VALID,21.4355,VALID,13,VALID,0.35,
2011-08-16, 00:34:04,VALID,917.947,VALID,0,VALID,95.3384,VALID,0.107441,VALID,21.416,VALID,13,VALID,0.0269531,
2011-08-16, 00:35:04,VALID,917.963,VALID,0,VALID,95.3308,VALID,0.107441,VALID,21.4355,VALID,13,VALID,0.046875,
2011-08-16, 00:36:04,VALID,917.95,VALID,0,VALID,95.2927,VALID,0.107441,VALID,21.4355,VALID,13,VALID,0.363672,
2011-08-16, 00:37:04,VALID,917.974,VALID,0,VALID,95.3003,VALID,0.107441,VALID,21.4144,VALID,13,VALID,0.4125,
2011-08-16, 00:38:04,VALID,917.979,VALID,0,VALID,95.3156,VALID,0,VALID,21.4567,VALID,13,VALID,0.173047,
2011-08-16, 00:39:04,VALID,917.944,VALID,0,VALID,95.2851,VALID,0,VALID,21.4355,VALID,14,VALID,0.0515625,
2011-08-16, 00:40:04,VALID,917.961,VALID,0,VALID,95.247,VALID,0.107441,VALID,21.416,VALID,13,VALID,0.162109,
2011-08-16, 00:41:04,VALID,917.971,VALID,0,VALID,95.2546,VALID,0,VALID,21.4355,VALID,13,VALID,0,
2011-08-16, 00:42:04,VALID,917.978,VALID,0,VALID,95.247,VALID,0,VALID,21.4567,VALID,13,VALID,0,
2011-08-16, 00:43:04,VALID,917.981,VALID,0,VALID,95.2546,VALID,0,VALID,21.416,VALID,13,VALID,0,
2011-08-16, 00:44:04,VALID,917.996,VALID,0,VALID,95.2393,VALID,0,VALID,21.4372,VALID,13,VALID,0.110547,
2011-08-16, 00:45:04,VALID,917.962,VALID,0,VALID,95.247,VALID,0,VALID,21.3965,VALID,13,VALID,0,
2011-08-16, 00:46:04,VALID,917.966,VALID,0,VALID,95.247,VALID,0,VALID,21.4177,VALID,13,VALID,0,
2011-08-16, 00:47:04,VALID,917.974,VALID,0,VALID,95.2317,VALID,0,VALID,21.3965,VALID,13,VALID,0,
2011-08-16, 00:48:04,VALID,917.941,VALID,0,VALID,95.2851,VALID,0,VALID,21.416,VALID,13,VALID,0.263672,
2011-08-16, 00:49:04,VALID,917.923,VALID,0,VALID,95.2775,VALID,0,VALID,21.4177,VALID,13,VALID,0.571484,
2011-08-16, 00:50:04,VALID,917.917,VALID,0,VALID,95.2546,VALID,0,VALID,21.416,VALID,13,VALID,0.43125,
2011-08-16, 00:51:04,VALID,917.885,VALID,0,VALID,95.2698,VALID,0,VALID,21.3981,VALID,13,VALID,0.368359,
2011-08-16, 00:52:04,VALID,917.87,VALID,0,VALID,95.3232,VALID,0,VALID,21.377,VALID,13,VALID,0.489453,
2011-08-16, 00:53:04,VALID,917.884,VALID,0,VALID,95.4071,VALID,0,VALID,21.3575,VALID,13,VALID,0.587109,
2011-08-16, 00:54:04,VALID,917.848,VALID,0,VALID,95.4604,VALID,0.107441,VALID,21.3591,VALID,13,VALID,0.491406,
2011-08-16, 00:55:04,VALID,917.865,VALID,0,VALID,95.5367,VALID,0,VALID,21.3575,VALID,13,VALID,0.554688,
2011-08-16, 00:56:04,VALID,917.846,VALID,0,VALID,95.59,VALID,0,VALID,21.3981,VALID,13,VALID,0.407813,
2011-08-16, 00:57:04,VALID,917.832,VALID,0,VALID,95.6281,VALID,0,VALID,21.3965,VALID,13,VALID,0.357422,
2011-08-16, 00:58:04,VALID,917.835,VALID,0,VALID,95.6281,VALID,0,VALID,21.3965,VALID,13,VALID,0.120312,
2011-08-16, 00:59:04,VALID,917.865,VALID,0,VALID,95.5976,VALID,0,VALID,21.3965,VALID,13,VALID,0,
2011-08-16, 01:00:04,VALID,917.841,VALID,0,VALID,95.5443,VALID,0,VALID,21.3981,VALID,13,VALID,0.376172,
2011-08-16, 01:01:04,VALID,917.849,VALID,0,VALID,95.5519,VALID,0,VALID,21.377,VALID,13,VALID,0.427734,
2011-08-16, 01:02:04,VALID,917.826,VALID,0,VALID,95.5595,VALID,0,VALID,21.3786,VALID,13,VALID,0.454297,
2011-08-16, 01:03:04,VALID,917.807,VALID,0,VALID,95.59,VALID,0,VALID,21.3575,VALID,13,VALID,0.323047,
2011-08-16, 01:04:04,VALID,917.804,VALID,0,VALID,95.5824,VALID,0.107441,VALID,21.338,VALID,13,VALID,0.514453,
2011-08-16, 01:05:04,VALID,917.816,VALID,0,VALID,95.5824,VALID,0.107441,VALID,21.338,VALID,13,VALID,0.16875,
2011-08-16, 01:06:04,VALID,917.781,VALID,0,VALID,95.651,VALID,0,VALID,21.338,VALID,13,VALID,0,
2011-08-16, 01:07:04,VALID,917.806,VALID,0,VALID,95.6662,VALID,0,VALID,21.3396,VALID,13,VALID,0,
2011-08-16, 01:08:04,VALID,917.774,VALID,0,VALID,95.6891,VALID,0,VALID,21.3201,VALID,13,VALID,0,
2011-08-16, 01:09:04,VALID,917.737,VALID,0,VALID,95.6815,VALID,0,VALID,21.3412,VALID,13,VALID,0,
2011-08-16, 01:10:04,VALID,917.71,VALID,0,VALID,95.6967,VALID,0,VALID,21.3217,VALID,13,VALID,0,
2011-08-16, 01:11:04,VALID,917.72,VALID,0,VALID,95.7044,VALID,0,VALID,21.3201,VALID,13,VALID,0.396094,
2011-08-16, 01:12:04,VALID,917.699,VALID,0,VALID,95.7044,VALID,0,VALID,21.3006,VALID,13,VALID,0.201562,
2011-08-16, 01:13:04,VALID,917.71,VALID,0,VALID,95.7349,VALID,0,VALID,21.3006,VALID,13,VALID,0,
2011-08-16, 01:14:04,VALID,917.713,VALID,0,VALID,95.7577,VALID,0,VALID,21.3234,VALID,13,VALID,0,
2011-08-16, 01:15:04,VALID,917.704,VALID,0,VALID,95.7044,VALID,0,VALID,21.2811,VALID,13,VALID,0.219531,
2011-08-16, 01:16:04,VALID,917.699,VALID,0,VALID,95.6967,VALID,0,VALID,21.2827,VALID,13,VALID,0.454688,
2011-08-16, 01:17:04,VALID,917.668,VALID,0,VALID,95.6739,VALID,0,VALID,21.2827,VALID,13,VALID,0.484375,
2011-08-16, 01:18:04,VALID,917.67,VALID,0,VALID,95.651,VALID,0,VALID,21.2632,VALID,13,VALID,0.315234,
2011-08-16, 01:19:04,VALID,917.635,VALID,0,VALID,95.6967,VALID,0,VALID,21.2226,VALID,13,VALID,0.323047,
2011-08-16, 01:20:04,VALID,917.61,VALID,0,VALID,95.7349,VALID,0,VALID,21.2226,VALID,13,VALID,0.339844,
2011-08-16, 01:21:04,VALID,917.613,VALID,0,VALID,95.773,VALID,0,VALID,21.2242,VALID,13,VALID,0,
2011-08-16, 01:22:04,VALID,917.586,VALID,0,VALID,95.7882,VALID,0,VALID,21.2437,VALID,13,VALID,0.0601562,
2011-08-16, 01:23:04,VALID,917.587,VALID,0,VALID,95.773,VALID,0,VALID,21.2226,VALID,13,VALID,0.583203,
2011-08-16, 01:24:04,VALID,917.6,VALID,0,VALID,95.6967,VALID,0,VALID,21.1624,VALID,13,VALID,0.555078,
2011-08-16, 01:25:04,VALID,917.543,VALID,0,VALID,95.7577,VALID,0,VALID,21.1429,VALID,13,VALID,0.374609,
2011-08-16, 01:26:04,VALID,917.549,VALID,0,VALID,95.8111,VALID,0,VALID,21.164,VALID,13,VALID,0.280078,
2011-08-16, 01:27:04,VALID,917.52,VALID,0,VALID,95.7272,VALID,0,VALID,21.125,VALID,13,VALID,0.504687,
2011-08-16, 01:28:04,VALID,917.501,VALID,0,VALID,95.7349,VALID,0,VALID,21.1055,VALID,13,VALID,0.281641,
2011-08-16, 01:29:04,VALID,917.509,VALID,0,VALID,95.7425,VALID,0,VALID,21.086,VALID,13,VALID,0.0535156,
2011-08-16, 01:30:04,VALID,917.497,VALID,0,VALID,95.7577,VALID,0,VALID,21.0665,VALID,13,VALID,0,
2011-08-16, 01:31:04,VALID,917.437,VALID,0,VALID,95.8111,VALID,0,VALID,21.0665,VALID,13,VALID,0.0121094,
2011-08-16, 01:32:04,VALID,917.449,VALID,0,VALID,95.8035,VALID,0,VALID,21.0454,VALID,13,VALID,0.10625,
2011-08-16, 01:33:04,VALID,917.403,VALID,0,VALID,95.8035,VALID,0,VALID,21.0665,VALID,13,VALID,0.221875,
2011-08-16, 01:34:04,VALID,917.389,VALID,0,VALID,95.8568,VALID,0,VALID,21.0665,VALID,13,VALID,0.280859,
2011-08-16, 01:35:04,VALID,917.371,VALID,0,VALID,95.8416,VALID,0,VALID,21.0665,VALID,13,VALID,0.121875,
2011-08-16, 01:36:04,VALID,917.333,VALID,0,VALID,95.8187,VALID,0,VALID,21.0665,VALID,13,VALID,0.169531,
2011-08-16, 01:37:04,VALID,917.298,VALID,0,VALID,95.8416,VALID,0,VALID,21.0665,VALID,13,VALID,0.0824219,
2011-08-16, 01:38:04,VALID,917.268,VALID,0,VALID,95.8568,VALID,0,VALID,21.0681,VALID,13,VALID,0,
2011-08-16, 01:39:04,VALID,917.246,VALID,0,VALID,95.8416,VALID,0,VALID,21.0259,VALID,13,VALID,0,
2011-08-16, 01:40:04,VALID,917.219,VALID,0,VALID,95.8263,VALID,0,VALID,21.0275,VALID,13,VALID,0.2,
2011-08-16, 01:41:04,VALID,917.205,VALID,0,VALID,95.8263,VALID,0,VALID,21.0486,VALID,13,VALID,0,
2011-08-16, 01:42:04,VALID,917.2,VALID,0,VALID,95.834,VALID,0,VALID,21.0275,VALID,13,VALID,0,
2011-08-16, 01:43:04,VALID,917.182,VALID,0,VALID,95.8263,VALID,0,VALID,21.0275,VALID,13,VALID,0,
2011-08-16, 01:44:04,VALID,917.182,VALID,0,VALID,95.8645,VALID,0,VALID,21.0681,VALID,13,VALID,0,
2011-08-16, 01:45:04,VALID,917.192,VALID,0,VALID,95.9026,VALID,0,VALID,21.0665,VALID,13,VALID,0,
2011-08-16, 01:46:04,VALID,917.191,VALID,0,VALID,95.9026,VALID,0,VALID,21.086,VALID,13,VALID,0,
2011-08-16, 01:47:04,VALID,917.185,VALID,0,VALID,95.8492,VALID,0,VALID,21.086,VALID,13,VALID,0,
2011-08-16, 01:48:04,VALID,917.179,VALID,0,VALID,95.8035,VALID,0,VALID,21.1266,VALID,13,VALID,0,
2011-08-16, 01:49:04,VALID,917.173,VALID,0,VALID,95.7654,VALID,0,VALID,21.1055,VALID,13,VALID,0.217578,
2011-08-16, 01:50:04,VALID,917.166,VALID,0,VALID,95.6967,VALID,0,VALID,21.086,VALID,13,VALID,0.355469,
2011-08-16, 01:51:04,VALID,917.172,VALID,0,VALID,95.6129,VALID,0,VALID,21.086,VALID,13,VALID,0.473047,
2011-08-16, 01:52:04,VALID,917.158,VALID,0,VALID,95.529,VALID,0,VALID,21.0665,VALID,13,VALID,0.570703,
2011-08-16, 01:53:04,VALID,917.154,VALID,0,VALID,95.4985,VALID,0,VALID,21.047,VALID,13,VALID,0.291406,
2011-08-16, 01:54:04,VALID,917.17,VALID,0,VALID,95.5214,VALID,0.107441,VALID,21.0064,VALID,13,VALID,0,
2011-08-16, 01:55:04,VALID,917.149,VALID,0,VALID,95.529,VALID,0,VALID,21.008,VALID,13,VALID,0,
2011-08-16, 01:56:04,VALID,917.168,VALID,0,VALID,95.5595,VALID,0,VALID,20.9885,VALID,13,VALID,0,
2011-08-16, 01:57:04,VALID,917.161,VALID,0,VALID,95.59,VALID,0,VALID,20.9901,VALID,13,VALID,0,
2011-08-16, 01:58:04,VALID,917.143,VALID,0,VALID,95.6053,VALID,0,VALID,20.9901,VALID,13,VALID,0,
2011-08-16, 01:59:04,VALID,917.115,VALID,0,VALID,95.6129,VALID,0,VALID,20.9268,VALID,13,VALID,0,
2011-08-16, 02:00:04,VALID,917.146,VALID,0,VALID,95.6205,VALID,0,VALID,20.9252,VALID,13,VALID,0,
2011-08-16, 02:01:04,VALID,917.122,VALID,0,VALID,95.59,VALID,0,VALID,20.9885,VALID,13,VALID,0,
2011-08-16, 02:02:04,VALID,917.137,VALID,0,VALID,95.5671,VALID,0,VALID,21.0729,VALID,13,VALID,0,
2011-08-16, 02:03:04,VALID,917.134,VALID,0,VALID,95.529,VALID,0,VALID,20.9057,VALID,13,VALID,0,
2011-08-16, 02:04:04,VALID,917.108,VALID,0,VALID,95.4833,VALID,0,VALID,20.9268,VALID,13,VALID,0,
2011-08-16, 02:05:04,VALID,917.072,VALID,0,VALID,95.4909,VALID,0,VALID,20.9917,VALID,13,VALID,0,
2011-08-16, 02:06:04,VALID,917.095,VALID,0,VALID,95.4909,VALID,0,VALID,20.9706,VALID,13,VALID,0.271875,
2011-08-16, 02:07:04,VALID,917.073,VALID,0,VALID,95.5062,VALID,0,VALID,20.8878,VALID,13,VALID,0.0261719,
2011-08-16, 02:08:04,VALID,917.069,VALID,0,VALID,95.5062,VALID,0.107441,VALID,20.9901,VALID,13,VALID,0.190234,
2011-08-16, 02:09:04,VALID,917.069,VALID,0,VALID,95.468,VALID,0.107441,VALID,20.9089,VALID,13,VALID,0.307813,
2011-08-16, 02:10:04,VALID,917.065,VALID,0,VALID,95.4147,VALID,0.107441,VALID,20.8683,VALID,13,VALID,0.169922,
2011-08-16, 02:11:04,VALID,917.052,VALID,0,VALID,95.3766,VALID,0,VALID,20.8277,VALID,13,VALID,0.155078,
2011-08-16, 02:12:04,VALID,917.037,VALID,0,VALID,95.4299,VALID,0.107441,VALID,20.8894,VALID,13,VALID,0.199609,
2011-08-16, 02:13:04,VALID,917.072,VALID,0,VALID,95.4147,VALID,0.107441,VALID,20.8714,VALID,13,VALID,0.340234,
2011-08-16, 02:14:04,VALID,917.056,VALID,0,VALID,95.4452,VALID,0.107441,VALID,20.7887,VALID,13,VALID,0.335547,
2011-08-16, 02:15:04,VALID,917.06,VALID,0,VALID,95.4604,VALID,0.107441,VALID,20.8504,VALID,13,VALID,0.412891,
2011-08-16, 02:16:04,VALID,917.102,VALID,0,VALID,95.5519,VALID,0,VALID,20.8309,VALID,13,VALID,0.519141,
2011-08-16, 02:17:04,VALID,917.089,VALID,0,VALID,95.6205,VALID,0.107441,VALID,20.8714,VALID,13,VALID,0.580078,
2011-08-16, 02:18:04,VALID,917.111,VALID,0,VALID,95.6815,VALID,0,VALID,20.8504,VALID,13,VALID,0.450391,
2011-08-16, 02:19:04,VALID,917.108,VALID,0,VALID,95.7272,VALID,0.107441,VALID,20.8519,VALID,13,VALID,0.355078,
2011-08-16, 02:20:04,VALID,917.072,VALID,0,VALID,95.7806,VALID,0,VALID,20.8293,VALID,13,VALID,0.248437,
2011-08-16, 02:21:04,VALID,917.103,VALID,0,VALID,95.8111,VALID,0,VALID,20.8504,VALID,13,VALID,0.369922,
2011-08-16, 02:22:04,VALID,917.085,VALID,0,VALID,95.9026,VALID,0.107441,VALID,20.891,VALID,13,VALID,0.28125,
2011-08-16, 02:23:04,VALID,917.089,VALID,0,VALID,95.9407,VALID,0,VALID,20.8714,VALID,13,VALID,0.299609,
2011-08-16, 02:24:04,VALID,917.075,VALID,0,VALID,95.9178,VALID,0.107441,VALID,20.891,VALID,13,VALID,0.269922,
2011-08-16, 02:25:04,VALID,917.098,VALID,0,VALID,95.9026,VALID,0,VALID,20.8488,VALID,13,VALID,0.00273437,
2011-08-16, 02:26:04,VALID,917.089,VALID,0,VALID,95.8645,VALID,0,VALID,20.8699,VALID,13,VALID,0.213672,
2011-08-16, 02:27:04,VALID,917.09,VALID,0,VALID,95.8568,VALID,0.107441,VALID,20.8878,VALID,13,VALID,0.171484,
2011-08-16, 02:28:04,VALID,917.083,VALID,0,VALID,95.8568,VALID,0,VALID,20.9885,VALID,13,VALID,0,
2011-08-16, 02:29:04,VALID,917.095,VALID,0,VALID,95.8035,VALID,0,VALID,21.0096,VALID,13,VALID,0,
2011-08-16, 02:30:04,VALID,917.107,VALID,0,VALID,95.8035,VALID,0,VALID,21.008,VALID,13,VALID,0,
2011-08-16, 02:31:04,VALID,917.069,VALID,0,VALID,95.7882,VALID,0.107441,VALID,21.0275,VALID,13,VALID,0,
2011-08-16, 02:32:04,VALID,917.114,VALID,0,VALID,95.7577,VALID,0,VALID,21.0275,VALID,13,VALID,0,
2011-08-16, 02:33:04,VALID,917.1,VALID,0,VALID,95.7577,VALID,0,VALID,21.0064,VALID,13,VALID,0,
2011-08-16, 02:34:04,VALID,917.099,VALID,0,VALID,95.7654,VALID,0,VALID,21.0259,VALID,13,VALID,0,
2011-08-16, 02:35:04,VALID,917.094,VALID,0,VALID,95.7654,VALID,0,VALID,21.047,VALID,13,VALID,0,
2011-08-16, 02:36:04,VALID,917.11,VALID,0,VALID,95.7349,VALID,0.107441,VALID,21.0454,VALID,13,VALID,0,
2011-08-16, 02:37:04,VALID,917.112,VALID,0,VALID,95.6815,VALID,0.107441,VALID,21.0259,VALID,13,VALID,0.302344,
2011-08-16, 02:38:04,VALID,917.158,VALID,0,VALID,95.6205,VALID,0,VALID,21.0291,VALID,13,VALID,0.202344,
2011-08-16, 02:39:04,VALID,917.122,VALID,0,VALID,95.6205,VALID,0,VALID,21.0096,VALID,13,VALID,0,
2011-08-16, 02:40:04,VALID,917.143,VALID,0,VALID,95.6815,VALID,0,VALID,20.969,VALID,13,VALID,0,
2011-08-16, 02:41:04,VALID,917.099,VALID,0,VALID,95.6967,VALID,0,VALID,21.0307,VALID,13,VALID,0.0804688,
2011-08-16, 02:42:04,VALID,917.12,VALID,0,VALID,95.7196,VALID,0,VALID,21.0096,VALID,13,VALID,0,
2011-08-16, 02:43:04,VALID,917.118,VALID,0,VALID,95.7349,VALID,0,VALID,21.0291,VALID,13,VALID,0,
2011-08-16, 02:44:04,VALID,917.125,VALID,0,VALID,95.773,VALID,0,VALID,21.0486,VALID,13,VALID,0.140234,
2011-08-16, 02:45:04,VALID,917.12,VALID,0,VALID,95.7806,VALID,0,VALID,21.0681,VALID,13,VALID,0.358594,
2011-08-16, 02:46:04,VALID,917.132,VALID,0,VALID,95.6815,VALID,0,VALID,21.0681,VALID,13,VALID,0.406641,
2011-08-16, 02:47:04,VALID,917.128,VALID,0,VALID,95.6281,VALID,0,VALID,21.0275,VALID,13,VALID,0.0667969,
2011-08-16, 02:48:04,VALID,917.128,VALID,0,VALID,95.6586,VALID,0,VALID,21.0291,VALID,13,VALID,0.0710938,
2011-08-16, 02:49:04,VALID,917.147,VALID,0,VALID,95.6739,VALID,0,VALID,21.0486,VALID,13,VALID,0.195703,
2011-08-16, 02:50:04,VALID,917.136,VALID,0,VALID,95.6586,VALID,0,VALID,21.0697,VALID,13,VALID,0.378125,
2011-08-16, 02:51:04,VALID,917.099,VALID,0,VALID,95.6053,VALID,0,VALID,21.0291,VALID,13,VALID,0.436328,
2011-08-16, 02:52:04,VALID,917.067,VALID,0,VALID,95.5748,VALID,0,VALID,21.0486,VALID,13,VALID,0.453516,
2011-08-16, 02:53:04,VALID,917.058,VALID,0,VALID,95.529,VALID,0,VALID,21.0275,VALID,13,VALID,0.415234,
2011-08-16, 02:54:04,VALID,917.042,VALID,0,VALID,95.5443,VALID,0.107441,VALID,21.047,VALID,13,VALID,0.285547,
2011-08-16, 02:55:04,VALID,917.021,VALID,0,VALID,95.5671,VALID,0,VALID,21.047,VALID,13,VALID,0.650391,
2011-08-16, 02:56:04,VALID,917.015,VALID,0,VALID,95.5519,VALID,0.107441,VALID,21.047,VALID,13,VALID,0.576172,
2011-08-16, 02:57:04,VALID,917.016,VALID,0,VALID,95.529,VALID,0,VALID,21.0275,VALID,13,VALID,0.567187,
2011-08-16, 02:58:04,VALID,916.995,VALID,0,VALID,95.5367,VALID,0,VALID,21.008,VALID,13,VALID,0.545313,
2011-08-16, 02:59:04,VALID,916.977,VALID,0,VALID,95.5671,VALID,0,VALID,21.0275,VALID,13,VALID,0.557422,
2011-08-16, 03:00:04,VALID,916.966,VALID,0,VALID,95.5748,VALID,0.107441,VALID,21.0275,VALID,13,VALID,0.500391,
2011-08-16, 03:01:04,VALID,916.984,VALID,0,VALID,95.5671,VALID,0,VALID,21.047,VALID,13,VALID,0.288281,
2011-08-16, 03:02:04,VALID,916.978,VALID,0,VALID,95.59,VALID,0,VALID,21.047,VALID,13,VALID,0.387109,
2011-08-16, 03:03:04,VALID,916.972,VALID,0,VALID,95.6129,VALID,0,VALID,21.0486,VALID,13,VALID,0.398828,
2011-08-16, 03:04:04,VALID,916.936,VALID,0,VALID,95.5976,VALID,0,VALID,21.047,VALID,13,VALID,0.264453,
2011-08-16, 03:05:04,VALID,916.916,VALID,0,VALID,95.5824,VALID,0,VALID,21.047,VALID,13,VALID,0.130469,
2011-08-16, 03:06:04,VALID,916.906,VALID,0,VALID,95.5824,VALID,0.107441,VALID,21.0665,VALID,13,VALID,0,
2011-08-16, 03:07:04,VALID,916.863,VALID,0,VALID,95.5671,VALID,0.107441,VALID,21.0665,VALID,13,VALID,0,
2011-08-16, 03:08:04,VALID,916.875,VALID,0,VALID,95.5367,VALID,0,VALID,21.086,VALID,13,VALID,0,
2011-08-16, 03:09:04,VALID,916.85,VALID,0,VALID,95.4757,VALID,0,VALID,21.0665,VALID,13,VALID,0.151172,
2011-08-16, 03:10:04,VALID,916.829,VALID,0,VALID,95.3918,VALID,0,VALID,21.047,VALID,13,VALID,0.00976563,
2011-08-16, 03:11:04,VALID,916.856,VALID,0,VALID,95.3384,VALID,0,VALID,21.047,VALID,13,VALID,0.266406,
2011-08-16, 03:12:04,VALID,916.841,VALID,0,VALID,95.2775,VALID,0,VALID,21.047,VALID,13,VALID,0.0964844,
2011-08-16, 03:13:04,VALID,916.841,VALID,0,VALID,95.2317,VALID,0,VALID,21.008,VALID,13,VALID,0.185547,
2011-08-16, 03:14:04,VALID,916.845,VALID,0,VALID,95.2927,VALID,0,VALID,21.0275,VALID,13,VALID,0,
2011-08-16, 03:15:04,VALID,916.837,VALID,0,VALID,95.2165,VALID,0.107441,VALID,20.9885,VALID,13,VALID,0.189844,
2011-08-16, 03:16:04,VALID,916.864,VALID,0,VALID,95.1555,VALID,0,VALID,20.969,VALID,13,VALID,0,
2011-08-16, 03:17:04,VALID,916.836,VALID,0,VALID,95.1783,VALID,0,VALID,20.9885,VALID,13,VALID,0.00390625,
2011-08-16, 03:18:04,VALID,916.848,VALID,0,VALID,95.2165,VALID,0,VALID,21.008,VALID,13,VALID,0,
2011-08-16, 03:19:04,VALID,916.841,VALID,0,VALID,95.2241,VALID,0,VALID,21.008,VALID,13,VALID,0,
2011-08-16, 03:20:04,VALID,916.855,VALID,0,VALID,95.247,VALID,0,VALID,21.008,VALID,13,VALID,0.342578,
2011-08-16, 03:21:04,VALID,916.853,VALID,0,VALID,95.2165,VALID,0,VALID,21.0275,VALID,13,VALID,0.0183594,
2011-08-16, 03:22:04,VALID,916.833,VALID,0,VALID,95.2241,VALID,0,VALID,21.0275,VALID,13,VALID,0,
2011-08-16, 03:23:04,VALID,916.852,VALID,0,VALID,95.2393,VALID,0.107441,VALID,21.0259,VALID,13,VALID,0,
2011-08-16, 03:24:04,VALID,916.849,VALID,0,VALID,95.2165,VALID,0,VALID,21.047,VALID,13,VALID,0,
2011-08-16, 03:25:04,VALID,916.815,VALID,0,VALID,95.1783,VALID,0,VALID,21.047,VALID,13,VALID,0,
2011-08-16, 03:26:04,VALID,916.818,VALID,0,VALID,95.1707,VALID,0.107441,VALID,21.0665,VALID,13,VALID,0.299609,
2011-08-16, 03:27:04,VALID,916.811,VALID,0,VALID,95.1174,VALID,0.107441,VALID,21.0259,VALID,13,VALID,0.29375,
2011-08-16, 03:28:04,VALID,916.821,VALID,0,VALID,95.1707,VALID,0,VALID,21.0259,VALID,13,VALID,0.485547,
2011-08-16, 03:29:04,VALID,916.814,VALID,0,VALID,95.2012,VALID,0.107441,VALID,21.0259,VALID,13,VALID,0.382422,
2011-08-16, 03:30:04,VALID,916.795,VALID,0,VALID,95.0335,VALID,0,VALID,20.9869,VALID,13,VALID,0.627734,
2011-08-16, 03:31:04,VALID,916.791,VALID,0,VALID,95.1174,VALID,0,VALID,20.9885,VALID,13,VALID,0.558594,
2011-08-16, 03:32:04,VALID,916.797,VALID,0,VALID,95.247,VALID,0,VALID,20.9885,VALID,13,VALID,0.0703125,
2011-08-16, 03:33:04,VALID,916.813,VALID,0,VALID,95.3156,VALID,0,VALID,21.0096,VALID,13,VALID,0.466016,
2011-08-16, 03:34:04,VALID,916.831,VALID,0,VALID,95.3232,VALID,0,VALID,20.9885,VALID,13,VALID,0.471484,
2011-08-16, 03:35:04,VALID,916.835,VALID,0,VALID,95.3461,VALID,0,VALID,20.969,VALID,13,VALID,0.298438,
2011-08-16, 03:36:04,VALID,916.795,VALID,0,VALID,95.2698,VALID,0,VALID,20.9495,VALID,13,VALID,0,
2011-08-16, 03:37:04,VALID,916.829,VALID,0,VALID,95.1555,VALID,0.107441,VALID,20.9105,VALID,13,VALID,0.0121094,
2011-08-16, 03:38:04,VALID,916.808,VALID,0,VALID,95.1021,VALID,0,VALID,20.9105,VALID,13,VALID,0,
2011-08-16, 03:39:04,VALID,916.799,VALID,0,VALID,95.1326,VALID,0.107441,VALID,20.9089,VALID,13,VALID,0.11875,
2011-08-16, 03:40:04,VALID,916.766,VALID,0,VALID,95.1097,VALID,0.107441,VALID,20.9105,VALID,13,VALID,0.4375,
2011-08-16, 03:41:04,VALID,916.819,VALID,0,VALID,95.0488,VALID,0,VALID,20.9105,VALID,13,VALID,0.515625,
2011-08-16, 03:42:04,VALID,916.79,VALID,0,VALID,95.0792,VALID,0,VALID,20.9105,VALID,13,VALID,0.547656,
2011-08-16, 03:43:04,VALID,916.776,VALID,0,VALID,95.125,VALID,0,VALID,20.9105,VALID,13,VALID,0.5125,
2011-08-16, 03:44:04,VALID,916.805,VALID,0,VALID,95.1021,VALID,0.107441,VALID,20.9105,VALID,13,VALID,0.325781,
2011-08-16, 03:45:04,VALID,916.772,VALID,0,VALID,95.0945,VALID,0.107441,VALID,20.9105,VALID,13,VALID,0.449609,
2011-08-16, 03:46:04,VALID,916.749,VALID,0,VALID,95.064,VALID,0.107441,VALID,20.9105,VALID,13,VALID,0.648438,